THORAD DELTA 1 DEB, 9988

Orbit data source: Space-Track

THORAD DELTA 1 DEB, 9988 is space debris in LEO originally from a launch on Fri, 15 Nov 1974 UTC launched from the Air Force Western Test Range (AFWTR). Debris objects in space refer to the collection of defunct objects orbiting the Earth. Examples of debris include non-operational satellites, rocket bodies, and fragments generated from explosions, collisions, or faulty payload assembly.

Loading next visibility...
Identifier
9988, 1974-089EF
Orbit
LEO
Country
Flag of USUS
Related business
Manufacturer
Unknown
Mission
Spacecraft
Bus & Motor
Unknown
Mass
Unknown
Launch date (UTC)
1974-11-15 (51 years ago)
Launch vehicle
Unknown
Launch site
Air Force Western Test Range (AFWTR)
Object type
Payload
Rocket body
Debris
Shape & HBR
Unknown shape, 0.1 m
Radar Cross Section
Small (<0.1 m²)

Expand to show TLE details & history
Last TLE update: 16 hours ago

TLE from 16 hours ago
0 THORAD DELTA 1 DEB
1 09988U 74089EF  26125.08523772  .00001383  00000-0  88553-3 0  9999
2 09988 103.0343 175.9725 0212734 342.3047  17.0770 13.95756340498453
Epoch: 2026-05-05T02:02Z
TLE epoch observation values (Epoch: 2026-05-05T02:02:44.539Z)
Latitude
Longitude
-77.67823°
Altitude
763.331 km
Speed
7.548 km/s
True Right ascension
11h 43m 53s
True Declination
0° 00' 00"
Sunlit
Object was in full shadow at epoch
Visualization orbit readout
Latitude
Unknown
Longitude
Unknown
Altitude
Unknown
Speed
Unknown
Apparent Right ascension
Unknown
Apparent Declination
Unknown
Sunlit
N/A
Visualization observer readout
Local Sidereal Time
01:33:57
Azimuth
Unknown
Elevation
Unknown
Doppler factor
Unknown
Orbital elements
Apogee altitude
1,060.928 km
Perigee altitude
751.012 km
Semi-major axis
7,284.107 km
Eccentricity
0.02127
Inclination
103.0343°
RAAN
175.9725°
Arg. of periapsis
342.3047°
True anomaly
17.81149°
Mean anomaly
17.077°
Eccentric anomaly
17.44235°
Mean motion
3.49123 °/min
Orbital period
103.12 mins
BSTAR
0.00088553
Loading maneuver chart data...
Computing Atmospheric mass density...
Loading historical data...
Loading historical data...
Loading historical data...
Loading historical data...
Loading historical data...
Loading historical data...
Loading historical data...

Documentation

Showing up to 5 results
|